Погода в Хохлове

Россия / Смоленская область     54°41′49″N   31°50′31″E
темп.,
°C
ветер,
м/с
пор.,
м/с
влажн.,
%
обл.,
%
осадки,
мм/ч
давл.,
гПа
погр.,
м
20 апреля, вт
вт2000:00+7в5887100 0.3 1020816
03:00+5всв3890100 0.3 1019374
06:00+5всв5892100 0.1 1018791
09:00+4всв5896100 0.5 1018612
12:00+4всв5796100 0.1 1017583
15:00+4всв4896100 0.2 1016512
18:00+4св4994100 0.2 1014476
21:00+5в498999 0.3 1013524
21 апреля, ср
ср2100:00+3всв3587100 0.0 1012370
03:00+3с3590100 0.0 1010266
06:00+3ссз2692100 0.0 1009310
09:00+4сз368099 0.0 1008525
12:00+8сз5564100 0.1 10081326
15:00+9з4561100 0.2 10081252
18:00+9зюз45659 0.3 10091108
21:00+6юз358291 0.3 101083
22 апреля, чт
чт2200:00+4ююз36856 0.0 1011104
03:00+5ю31080100 0.0 1011242
06:00+6ю4108793 0.1 1011305
09:00+9ююз588070 0.2 1011485
12:00+13ю79615 1.1 10111269
15:00+14ююз7106193 2.8 10101579
18:00+13юз59648 1.5 10101089
21:00+8ююз337714 1.6 101130
23 апреля, пт
пт2300:00+8юз2588100 0.4 1010158
03:00+7юз5794100 3.9 1010565
06:00+4зюз3791100 2.3 1013472
09:00+6юз4576100 2.4 1014674
12:00+8зюз4561100 0.1 10141388
15:00+8зюз4459100 0.1 10141265
18:00+7юз3465100 0.1 1014816
21:00+5юз3572100 0.1 101392
24 апреля, сб
сб2400:00+4зюз3578100 0.0 1012112
03:00+2з36845 0.0 1011135
06:000з368775 0.0 1011138
09:00+4з46738 0.0 1011695
12:00+4зюз677086 0.3 10111200
15:00+4зюз688176 0.6 1012820
18:00+4зюз6774100 0.6 10111045
21:00+2зюз388776 0.7 1012272